Location: Newark
(25.0000°N, 73.5000°E)
Time: 00:43:07
(UTC+00:00)

Tiros 1 despin weight - Pass Details

Date: 03 March 2021
Orbit: 593 x 641 km, 48.2° (Epoch: 15 April)

Event Time Altitude Azimuth Distance (km) Brightness Sun altitude
Rises 00:29:04 0° 331° (NNW) 2,934 - -13.9°
Exits shadow 00:29:13 - 332° (NNW) 2,885 ? -13.9°
Reaches altitude 10° 00:32:07 10° 351° (N) 2,027 ? -13.2°
Maximum altitude 00:35:13 17° 33° (NNE) 1,602 ? -12.5°
Drops below altitude 10° 00:38:18 10° 75° (ENE) 2,024 ? -11.8°
Sets 00:41:20 0° 95° (E) 2,928 ? -11.2°
